| time (UTC) | temp F | wind direction | speed knots | gust knots | rain 1hr in | rain 24hr in | rain mn in | humidity % | barometer mb |
| 20260906111721 | 72 | 117 | 0.0 | 1.7 | 0.00 | 0.00 | 0.00 | 93 | 1015.5 |
| 20260906111215 | 72 | 94 | 1.7 | 1.7 | 0.00 | 0.00 | 0.00 | 93 | 1015.5 |
| 20260906110710 | 72 | 112 | 1.7 | 1.7 | 0.00 | 0.00 | 0.00 | 93 | 1015.5 |
| 20260906110207 | 73 | 112 | 1.7 | 1.7 | 0.00 | 0.00 | 0.00 | 93 | 1015.5 |
| 20260906105705 | 73 | 67 | 1.7 | 2.6 | 0.00 | 0.00 | 0.00 | 93 | 1015.4 |
| 20260906105202 | 72 | 41 | 0.9 | 1.7 | 0.00 | 0.00 | 0.00 | 93 | 1015.4 |
| 20260906104701 | 73 | 136 | 1.7 | 1.7 | 0.00 | 0.00 | 0.00 | 93 | 1015.5 |
| 20260906104200 | 73 | 84 | 0.0 | 1.7 | 0.00 | 0.00 | 0.00 | 94 | 1015.1 |
| 20260906103658 | 73 | 119 | 1.7 | 2.6 | 0.00 | 0.00 | 0.00 | 94 | 1015.1 |
| 20260906103153 | 73 | 98 | 0.9 | 1.7 | 0.00 | 0.00 | 0.00 | 95 | 1015.2 |
| 20260906102649 | 73 | 120 | 0.0 | 1.7 | 0.00 | 0.00 | 0.00 | 95 | 1015.2 |
| 20260906102148 | 73 | 69 | 0.0 | 1.7 | 0.00 | 0.00 | 0.00 | 95 | 1015.2 |
| 20260906101648 | 72 | 105 | 0.9 | 1.7 | 0.00 | 0.00 | 0.00 | 96 | 1015.2 |
| 20260906101142 | 72 | 126 | 1.7 | 2.6 | 0.00 | 0.00 | 0.00 | 96 | 1015.1 |
| 20260906100638 | 72 | 106 | 0.9 | 2.6 | 0.00 | 0.00 | 0.00 | 96 | 1014.9 |
| 20260906100134 | 72 | 79 | 1.7 | 2.6 | 0.00 | 0.00 | 0.00 | 96 | 1014.8 |
| 20260906095634 | 72 | 66 | 1.7 | 2.6 | 0.00 | 0.00 | 0.00 | 97 | 1014.7 |
| 20260906095129 | 72 | 83 | 1.7 | 1.7 | 0.00 | 0.00 | 0.00 | 97 | 1014.8 |
| 20260906094628 | 72 | 69 | 1.7 | 4.3 | 0.00 | 0.00 | 0.00 | 97 | 1014.7 |
| 20260906094124 | 72 | 146 | 1.7 | 3.5 | 0.00 | 0.00 | 0.00 | 97 | 1014.7 |
| 20260906093620 | 72 | 93 | 1.7 | 2.6 | 0.00 | 0.00 | 0.00 | 97 | 1014.7 |
| 20260906093120 | 72 | 99 | 1.7 | 2.6 | 0.00 | 0.00 | 0.00 | 97 | 1014.7 |
| 20260906092615 | 72 | 96 | 1.7 | 2.6 | 0.00 | 0.00 | 0.00 | 97 | 1014.2 |
| 20260906092110 | 72 | 150 | 0.0 | 3.5 | 0.00 | 0.00 | 0.00 | 97 | 1014.6 |
| 20260906091606 | 72 | 95 | 0.9 | 1.7 | 0.00 | 0.00 | 0.00 | 97 | 1014.4 |
| 20260906091103 | 72 | 115 | 0.9 | 2.6 | 0.00 | 0.00 | 0.00 | 97 | 1014.3 |
| 20260906090602 | 72 | 120 | 1.7 | 3.5 | 0.00 | 0.00 | 0.00 | 97 | 1014.1 |
| 20260906085601 | 71 | 76 | 1.7 | 2.6 | 0.00 | 0.00 | 0.00 | 97 | 1014.1 |
| 20260906085056 | 71 | 74 | 2.6 | 3.5 | 0.00 | 0.00 | 0.00 | 97 | 1013.9 |
| 20260906084551 | 71 | 67 | 1.7 | 2.6 | 0.00 | 0.00 | 0.00 | 97 | 1014.2 |
| 20260906084049 | 71 | 68 | 1.7 | 1.7 | 0.00 | 0.00 | 0.00 | 96 | 1014.0 |
| 20260906083545 | 71 | 89 | 0.9 | 1.7 | 0.00 | 0.00 | 0.00 | 96 | 1013.9 |
| 20260906083045 | 71 | 93 | 0.9 | 2.6 | 0.00 | 0.00 | 0.00 | 96 | 1014.0 |
| 20260906082540 | 71 | 68 | 1.7 | 1.7 | 0.00 | 0.00 | 0.00 | 96 | 1013.6 |
| 20260906082036 | 71 | 78 | 0.9 | 1.7 | 0.00 | 0.00 | 0.00 | 96 | 1013.8 |
| 20260906081532 | 71 | 76 | 1.7 | 1.7 | 0.00 | 0.00 | 0.00 | 96 | 1013.7 |
| 20260906081027 | 71 | 85 | 0.9 | 1.7 | 0.00 | 0.00 | 0.00 | 96 | 1013.5 |
| 20260906080524 | 70 | 75 | 1.7 | 1.7 | 0.00 | 0.00 | 0.00 | 96 | 1013.5 |
| 20260906080020 | 70 | 109 | 0.9 | 1.7 | 0.00 | 0.00 | 0.00 | 96 | 1013.6 |
| 20260906075519 | 70 | 89 | 1.7 | 1.7 | 0.00 | 0.00 | 0.00 | 96 | 1013.6 |
| 20260906075014 | 70 | 74 | 1.7 | 1.7 | 0.00 | 0.00 | 0.00 | 95 | 1013.6 |
| 20260906074509 | 70 | 89 | 0.9 | 0.9 | 0.00 | 0.00 | 0.00 | 95 | 1013.6 |
| 20260906074007 | 70 | 89 | 0.9 | 0.9 | 0.00 | 0.00 | 0.00 | 95 | 1013.8 |
| 20260906073502 | 70 | 89 | 0.9 | 0.9 | 0.00 | 0.00 | 0.00 | 95 | 1013.5 |
| 20260906072958 | 70 | 29 | 0.0 | 0.0 | 0.00 | 0.00 | 0.00 | 95 | 1013.4 |
| 20260906072453 | 70 | 55 | 0.0 | 0.0 | 0.00 | 0.00 | 0.00 | 95 | 1013.7 |
| 20260906071949 | 70 | 106 | 0.0 | 0.9 | 0.00 | 0.00 | 0.00 | 95 | 1013.8 |
| 20260906071445 | 70 | 50 | 0.0 | 0.0 | 0.00 | 0.00 | 0.00 | 95 | 1013.8 |
| 20260906070940 | 70 | 37 | 0.0 | 0.0 | 0.00 | 0.00 | 0.00 | 95 | 1013.7 |
| 20260906070437 | 70 | 103 | 0.0 | 0.0 | 0.00 | 0.00 | 0.00 | 95 | 1013.9 |
| 20260906065932 | 70 | 53 | 0.0 | 0.9 | 0.00 | 0.00 | 0.00 | 94 | 1013.9 |
| 20260906065426 | 70 | 62 | 0.0 | 0.9 | 0.00 | 0.00 | 0.00 | 94 | 1013.9 |
| 20260906064922 | 70 | 40 | 0.9 | 0.9 | 0.00 | 0.00 | 0.00 | 94 | 1013.9 |
| 20260906064418 | 70 | 117 | 0.0 | 0.9 | 0.00 | 0.00 | 0.00 | 94 | 1014.1 |
| 20260906063918 | 70 | 118 | 0.0 | 0.9 | 0.00 | 0.00 | 0.00 | 94 | 1014.0 |
| 20260906063413 | 70 | 125 | 0.0 | 0.9 | 0.00 | 0.00 | 0.00 | 94 | 1014.2 |
| 20260906062908 | 70 | 89 | 0.0 | 0.9 | 0.00 | 0.00 | 0.00 | 94 | 1014.0 |
| 20260906062408 | 70 | 72 | 0.0 | 1.7 | 0.00 | 0.00 | 0.00 | 94 | 1014.0 |
| 20260906061904 | 71 | 113 | 0.0 | 0.9 | 0.00 | 0.00 | 0.00 | 93 | 1014.0 |
| 20260906061400 | 71 | 65 | 0.0 | 0.9 | 0.00 | 0.00 | 0.00 | 93 | 1014.1 |
| 20260906060854 | 71 | 113 | 0.0 | 0.9 | 0.00 | 0.00 | 0.00 | 93 | 1014.1 |
| 20260906060352 | 71 | 119 | 0.0 | 0.9 | 0.00 | 0.00 | 0.00 | 93 | 1014.0 |
| 20260906055847 | 71 | 87 | 0.0 | 0.9 | 0.00 | 0.00 | 0.00 | 93 | 1014.1 |
| 20260906055343 | 71 | 89 | 0.0 | 0.9 | 0.00 | 0.00 | 0.00 | 92 | 1014.0 |
| 20260906054838 | 71 | 95 | 0.0 | 0.9 | 0.00 | 0.00 | 0.00 | 92 | 1014.1 |
| 20260906054333 | 71 | 80 | 0.9 | 0.9 | 0.00 | 0.00 | 0.00 | 92 | 1014.2 |
| 20260906053829 | 71 | 85 | 0.0 | 0.9 | 0.00 | 0.00 | 0.00 | 92 | 1014.2 |
| 20260906053325 | 71 | 76 | 0.0 | 0.9 | 0.00 | 0.00 | 0.00 | 92 | 1014.3 |
| 20260906052820 | 72 | 89 | 0.0 | 0.0 | 0.00 | 0.00 | 0.00 | 91 | 1014.1 |
| 20260906052316 | 72 | 113 | 0.0 | 0.9 | 0.00 | 0.00 | 0.00 | 91 | 1014.2 |
| 20260906051814 | 72 | 117 | 0.0 | 0.9 | 0.00 | 0.00 | 0.00 | 91 | 1014.2 |
| 20260906051313 | 72 | 125 | 0.9 | 0.9 | 0.00 | 0.00 | 0.00 | 91 | 1014.2 |
| 20260906050808 | 72 | 106 | 0.9 | 1.7 | 0.00 | 0.00 | 0.00 | 91 | 1014.3 |
| 20260906050303 | 72 | 117 | 0.0 | 1.7 | 0.00 | 0.00 | 0.00 | 91 | 1014.4 |
| 20260906045802 | 72 | 96 | 0.9 | 1.7 | 0.00 | 0.00 | 0.00 | 91 | 1014.2 |
| 20260906045256 | 72 | 104 | 0.0 | 0.9 | 0.00 | 0.00 | 0.00 | 90 | 1014.4 |
| 20260906044753 | 72 | 93 | 0.0 | 0.9 | 0.00 | 0.00 | 0.00 | 90 | 1014.6 |
| 20260906044247 | 72 | 142 | 0.0 | 0.9 | 0.00 | 0.00 | 0.00 | 90 | 1014.6 |
| 20260906043743 | 72 | 164 | 0.0 | 0.0 | 0.00 | 0.00 | 0.00 | 90 | 1014.8 |
| 20260906043239 | 72 | 89 | 0.0 | 0.9 | 0.00 | 0.00 | 0.00 | 89 | 1014.7 |
| 20260906042739 | 72 | 103 | 0.0 | 0.9 | 0.00 | 0.00 | 0.00 | 88 | 1014.8 |
| 20260906042238 | 73 | 113 | 0.0 | 0.9 | 0.00 | 0.00 | 0.00 | 88 | 1014.9 |
| 20260906041733 | 73 | 89 | 0.9 | 0.9 | 0.00 | 0.00 | 0.00 | 87 | 1014.9 |
| 20260906041229 | 73 | 125 | 0.9 | 0.9 | 0.00 | 0.00 | 0.00 | 87 | 1014.6 |
| 20260906040724 | 73 | 154 | 0.0 | 0.9 | 0.00 | 0.00 | 0.00 | 86 | 1014.8 |
| 20260906040214 | 74 | 142 | 0.0 | 0.0 | 0.00 | 0.00 | 0.00 | 86 | 1014.8 |
| 20260906035709 | 74 | 152 | 0.0 | 0.9 | 0.00 | 0.03 | 0.03 | 86 | 1014.9 |
| 20260906035205 | 74 | 135 | 0.0 | 0.0 | 0.00 | 0.03 | 0.03 | 86 | 1015.0 |
| 20260906034704 | 74 | 147 | 0.0 | 0.0 | 0.00 | 0.03 | 0.03 | 85 | 1014.8 |
| 20260906034159 | 74 | 120 | 0.0 | 1.7 | 0.00 | 0.03 | 0.03 | 85 | 1015.0 |
| 20260906033655 | 74 | 163 | 0.9 | 0.9 | 0.00 | 0.03 | 0.03 | 85 | 1014.9 |
| 20260906033156 | 74 | 129 | 0.0 | 0.9 | 0.00 | 0.03 | 0.03 | 84 | 1014.9 |
| 20260906032652 | 74 | 128 | 0.0 | 0.9 | 0.00 | 0.03 | 0.03 | 84 | 1015.1 |
| 20260906032152 | 75 | 89 | 0.0 | 0.9 | 0.00 | 0.03 | 0.03 | 84 | 1014.9 |
| 20260906031647 | 75 | 89 | 0.0 | 1.7 | 0.00 | 0.03 | 0.03 | 83 | 1015.0 |
| 20260906031143 | 75 | 89 | 0.0 | 1.7 | 0.00 | 0.03 | 0.03 | 83 | 1014.7 |
| 20260906030642 | 74 | 81 | 1.7 | 1.7 | 0.00 | 0.03 | 0.03 | 84 | 1015.0 |
| 20260906030137 | 75 | 132 | 0.9 | 1.7 | 0.00 | 0.03 | 0.03 | 84 | 1014.7 |
| 20260906025637 | 75 | 107 | 0.9 | 1.7 | 0.00 | 0.03 | 0.03 | 83 | 1014.8 |
| 20260906025136 | 75 | 116 | 0.0 | 0.9 | 0.00 | 0.03 | 0.03 | 83 | 1014.4 |
| 20260906024631 | 75 | 147 | 0.0 | 1.7 | 0.00 | 0.03 | 0.03 | 83 | 1014.3 |
| 20260906024130 | 75 | 160 | 0.0 | 0.9 | 0.00 | 0.03 | 0.03 | 82 | 1014.3 |
| 20260906023627 | 75 | 264 | 0.0 | 1.7 | 0.00 | 0.03 | 0.03 | 82 | 1014.3 |
| 20260906023126 | 75 | 355 | 0.0 | 1.7 | 0.00 | 0.03 | 0.03 | 82 | 1014.3 |
| 20260906022622 | 75 | 37 | 0.0 | 1.7 | 0.00 | 0.03 | 0.03 | 82 | 1014.3 |
| 20260906022117 | 75 | 74 | 0.0 | 0.9 | 0.00 | 0.03 | 0.03 | 82 | 1014.2 |
| 20260906021613 | 75 | 185 | 0.0 | 1.7 | 0.00 | 0.03 | 0.03 | 83 | 1014.3 |
| 20260906021111 | 75 | 244 | 0.0 | 1.7 | 0.00 | 0.03 | 0.03 | 83 | 1014.3 |
| 20260906020611 | 75 | 135 | 0.0 | 0.0 | 0.00 | 0.03 | 0.03 | 83 | 1014.3 |
| 20260906020106 | 75 | 269 | 0.0 | 0.0 | 0.00 | 0.03 | 0.03 | 83 | 1014.2 |
| 20260906015606 | 75 | 104 | 0.0 | 0.9 | 0.00 | 0.03 | 0.03 | 82 | 1013.9 |
| 20260906015105 | 75 | 154 | 0.0 | 0.9 | 0.00 | 0.03 | 0.03 | 81 | 1013.9 |
| 20260906014600 | 76 | 174 | 0.0 | 0.9 | 0.00 | 0.03 | 0.03 | 81 | 1014.0 |
| 20260906014056 | 76 | 142 | 0.0 | 0.0 | 0.00 | 0.03 | 0.03 | 80 | 1014.0 |
| 20260906013551 | 76 | 11 | 0.0 | 0.9 | 0.00 | 0.03 | 0.03 | 80 | 1014.1 |
| 20260906013046 | 76 | 236 | 0.0 | 1.7 | 0.00 | 0.03 | 0.03 | 80 | 1014.0 |
| 20260906012541 | 76 | 182 | 0.0 | 1.7 | 0.00 | 0.03 | 0.03 | 80 | 1013.9 |
| 20260906012041 | 75 | 193 | 0.0 | 1.7 | 0.00 | 0.03 | 0.03 | 81 | 1013.8 |
| 20260906011537 | 75 | 230 | 0.0 | 0.0 | 0.00 | 0.03 | 0.03 | 81 | 1013.8 |
| 20260906011037 | 75 | 209 | 0.0 | 0.0 | 0.00 | 0.03 | 0.03 | 81 | 1013.7 |
| 20260906010532 | 76 | 62 | 0.0 | 0.0 | 0.00 | 0.03 | 0.03 | 80 | 1014.0 |
| 20260906010028 | 76 | 164 | 0.0 | 0.0 | 0.00 | 0.03 | 0.03 | 80 | 1014.0 |
| 20260906005527 | 76 | 157 | 0.0 | 0.0 | 0.00 | 0.03 | 0.03 | 80 | 1014.0 |
| 20260906005027 | 76 | 151 | 0.0 | 0.9 | 0.00 | 0.03 | 0.03 | 79 | 1013.8 |
| 20260906004526 | 76 | 137 | 0.0 | 0.9 | 0.00 | 0.03 | 0.03 | 78 | 1013.9 |
| 20260906004021 | 77 | 151 | 0.0 | 0.9 | 0.00 | 0.03 | 0.03 | 77 | 1013.8 |
| 20260906003516 | 77 | 129 | 0.0 | 0.0 | 0.00 | 0.03 | 0.03 | 77 | 1013.9 |
| 20260906003012 | 77 | 154 | 0.0 | 0.9 | 0.00 | 0.03 | 0.03 | 76 | 1013.8 |
| 20260906002507 | 77 | 247 | 0.9 | 1.7 | 0.00 | 0.03 | 0.03 | 76 | 1013.8 |
| 20260906002002 | 77 | 63 | 0.0 | 0.9 | 0.00 | 0.03 | 0.03 | 75 | 1013.6 |
| 20260906001458 | 78 | 128 | 0.9 | 1.7 | 0.00 | 0.03 | 0.03 | 75 | 1013.6 |
| 20260906000952 | 78 | 217 | 0.0 | 1.7 | 0.00 | 0.03 | 0.03 | 74 | 1013.5 |
| 20260906000448 | 78 | 154 | 0.0 | 0.9 | 0.00 | 0.03 | 0.03 | 74 | 1013.5 |
| 20260905235948 | 78 | 314 | 0.0 | 0.9 | 0.00 | 0.03 | 0.03 | 73 | 1013.4 |
| 20260905235442 | 79 | 155 | 0.0 | 1.7 | 0.00 | 0.03 | 0.03 | 72 | 1013.5 |
| 20260905234937 | 79 | 212 | 0.0 | 2.6 | 0.00 | 0.03 | 0.03 | 71 | 1013.2 |
| 20260905234433 | 79 | 214 | 0.0 | 1.7 | 0.00 | 0.03 | 0.03 | 70 | 1013.2 |
| 20260905233932 | 80 | 218 | 0.9 | 1.7 | 0.00 | 0.03 | 0.03 | 70 | 1013.0 |
| 20260905233428 | 80 | 253 | 0.0 | 4.3 | 0.00 | 0.03 | 0.03 | 68 | 1013.3 |
| 20260905232927 | 81 | 215 | 0.9 | 2.6 | 0.00 | 0.03 | 0.03 | 67 | 1013.1 |
| 20260905232423 | 81 | 287 | 0.0 | 2.6 | 0.00 | 0.03 | 0.03 | 65 | 1013.0 |
| 20260905231918 | 82 | 259 | 1.7 | 3.5 | 0.00 | 0.03 | 0.03 | 65 | 1012.9 |
| 20260905231414 | 82 | 266 | 2.6 | 3.5 | 0.00 | 0.03 | 0.03 | 64 | 1012.9 |
| 20260905230910 | 83 | 32 | 0.0 | 1.7 | 0.00 | 0.03 | 0.03 | 65 | 1012.8 |
| 20260905230409 | 83 | 305 | 0.0 | 3.5 | 0.00 | 0.03 | 0.03 | 64 | 1012.9 |
| 20260905225907 | 83 | 28 | 0.0 | 3.5 | 0.00 | 0.03 | 0.03 | 64 | 1012.8 |
| 20260905225402 | 84 | 276 | 2.6 | 3.5 | 0.00 | 0.03 | 0.03 | 62 | 1012.8 |
| 20260905224857 | 84 | 315 | 1.7 | 1.7 | 0.00 | 0.03 | 0.03 | 61 | 1012.8 |
| 20260905224353 | 84 | 231 | 0.9 | 3.5 | 0.00 | 0.03 | 0.03 | 62 | 1012.9 |
| 20260905223848 | 84 | 284 | 1.7 | 1.7 | 0.00 | 0.03 | 0.03 | 63 | 1013.1 |
| 20260905223346 | 84 | 272 | 2.6 | 5.2 | 0.00 | 0.03 | 0.03 | 63 | 1013.0 |
| 20260905222845 | 84 | 249 | 0.0 | 2.6 | 0.00 | 0.03 | 0.03 | 64 | 1013.1 |
| 20260905222344 | 83 | 206 | 0.9 | 3.5 | 0.00 | 0.03 | 0.03 | 66 | 1013.0 |
| 20260905221841 | 83 | 252 | 0.0 | 2.6 | 0.00 | 0.03 | 0.03 | 67 | 1013.2 |
| 20260905221337 | 82 | 238 | 1.7 | 3.5 | 0.00 | 0.03 | 0.03 | 68 | 1013.1 |
| 20260905220833 | 81 | 309 | 1.7 | 1.7 | 0.00 | 0.03 | 0.03 | 70 | 1013.1 |
| 20260905220329 | 81 | 220 | 0.9 | 1.7 | 0.00 | 0.03 | 0.03 | 70 | 1013.3 |
| 20260905215828 | 81 | 260 | 1.7 | 3.5 | 0.00 | 0.03 | 0.03 | 70 | 1013.3 |
| 20260905215324 | 81 | 230 | 0.0 | 1.7 | 0.00 | 0.03 | 0.03 | 76 | 1013.7 |
| 20260905214820 | 80 | 202 | 0.0 | 1.7 | 0.00 | 0.03 | 0.03 | 77 | 1013.5 |
| 20260905214315 | 80 | 210 | 1.7 | 3.5 | 0.00 | 0.03 | 0.03 | 77 | 1013.8 |
| 20260905213810 | 80 | 142 | 0.0 | 1.7 | 0.00 | 0.03 | 0.03 | 76 | 1013.5 |
| 20260905213307 | 80 | 205 | 0.0 | 1.7 | 0.00 | 0.03 | 0.03 | 77 | 1013.5 |
| 20260905212807 | 80 | 195 | 0.0 | 1.7 | 0.00 | 0.03 | 0.03 | 76 | 1013.7 |
| 20260905212306 | 80 | 153 | 0.9 | 0.9 | 0.00 | 0.03 | 0.03 | 76 | 1013.6 |
| 20260905211801 | 81 | 182 | 0.0 | 1.7 | 0.00 | 0.03 | 0.03 | 74 | 1013.5 |
| 20260905211256 | 82 | 177 | 0.9 | 1.7 | 0.00 | 0.03 | 0.03 | 72 | 1013.8 |
| 20260905210753 | 82 | 157 | 0.9 | 1.7 | 0.00 | 0.03 | 0.03 | 72 | 1013.8 |
| 20260905210252 | 82 | 143 | 0.9 | 1.7 | 0.00 | 0.03 | 0.03 | 71 | 1013.8 |
| 20260905205751 | 82 | 190 | 1.7 | 3.5 | 0.00 | 0.03 | 0.03 | 73 | 1013.9 |
| 20260905205246 | 82 | 227 | 0.9 | 3.5 | 0.00 | 0.03 | 0.03 | 71 | 1013.7 |
| 20260905204745 | 80 | 225 | 0.9 | 2.6 | 0.00 | 0.03 | 0.03 | 76 | 1013.6 |
| 20260905204242 | 79 | 250 | 0.9 | 2.6 | 0.00 | 0.03 | 0.03 | 80 | 1013.4 |
| 20260905203741 | 78 | 148 | 1.7 | 1.7 | 0.00 | 0.03 | 0.03 | 83 | 1013.2 |
| 20260905203236 | 78 | 187 | 0.0 | 1.7 | 0.00 | 0.03 | 0.03 | 83 | 1013.1 |
| 20260905202732 | 78 | 150 | 0.9 | 1.7 | 0.00 | 0.03 | 0.03 | 84 | 1013.0 |
| 20260905202227 | 78 | 142 | 0.0 | 0.9 | 0.00 | 0.03 | 0.03 | 84 | 1013.1 |
| 20260905201722 | 77 | 136 | 0.9 | 1.7 | 0.00 | 0.03 | 0.03 | 85 | 1013.1 |
| 20260905201216 | 77 | 144 | 0.9 | 1.7 | 0.00 | 0.03 | 0.03 | 86 | 1013.4 |
| 20260905200712 | 77 | 138 | 1.7 | 1.7 | 0.00 | 0.03 | 0.03 | 86 | 1013.3 |
| 20260905200207 | 77 | 135 | 1.7 | 1.7 | 0.00 | 0.03 | 0.03 | 87 | 1013.6 |
| 20260905195705 | 76 | 59 | 1.7 | 1.7 | 0.00 | 0.03 | 0.03 | 87 | 1013.8 |
| 20260905195200 | 76 | 251 | 0.0 | 4.3 | 0.00 | 0.03 | 0.03 | 87 | 1013.9 |
| 20260905194656 | 76 | 248 | 0.0 | 2.6 | 0.00 | 0.03 | 0.03 | 87 | 1013.8 |
| 20260905194156 | 75 | 285 | 2.6 | 3.5 | 0.00 | 0.03 | 0.03 | 88 | 1013.8 |
| 20260905193655 | 75 | 322 | 0.0 | 0.9 | 0.00 | 0.03 | 0.03 | 88 | 1013.7 |
| 20260905193151 | 75 | 205 | 0.0 | 0.9 | 0.00 | 0.03 | 0.03 | 88 | 1013.7 |
| 20260905192646 | 75 | 122 | 0.0 | 1.7 | 0.00 | 0.03 | 0.03 | 87 | 1013.7 |
| 20260905192142 | 75 | 231 | 1.7 | 2.6 | 0.00 | 0.03 | 0.03 | 86 | 1013.3 |
| 20260905191642 | 75 | 175 | 0.9 | 2.6 | 0.00 | 0.03 | 0.03 | 84 | 1013.1 |
| 20260905191140 | 76 | 147 | 1.7 | 2.6 | 0.00 | 0.03 | 0.03 | 81 | 1013.4 |
| 20260905190638 | 76 | 141 | 1.7 | 1.7 | 0.00 | 0.03 | 0.03 | 80 | 1013.4 |
| 20260905190132 | 76 | 145 | 0.9 | 1.7 | 0.00 | 0.03 | 0.03 | 79 | 1013.5 |
| 20260905185631 | 77 | 106 | 0.9 | 2.6 | 0.00 | 0.03 | 0.03 | 78 | 1013.7 |
| 20260905185126 | 78 | 26 | 0.9 | 3.5 | 0.09 | 0.03 | 0.03 | 77 | 1013.6 |
| 20260905184626 | 80 | 79 | 0.9 | 2.6 | 0.14 | 0.02 | 0.02 | 73 | 1013.8 |
| 20260905184125 | 85 | 68 | 0.9 | 4.3 | 0.07 | 0.01 | 0.01 | 63 | 1014.0 |
| 20260905183624 | 89 | 31 | 5.2 | 6.1 | 0.00 | 0.00 | 0.00 | 51 | 1014.1 |
| 20260905183120 | 91 | 339 | 2.6 | 6.1 | 0.00 | 0.00 | 0.00 | 54 | 1013.2 |
| 20260905182619 | 91 | 273 | 1.7 | 3.5 | 0.00 | 0.00 | 0.00 | 53 | 1013.1 |
| 20260905182120 | 92 | 261 | 1.7 | 4.3 | 0.00 | 0.00 | 0.00 | 52 | 1013.1 |
| 20260905181620 | 92 | 322 | 4.3 | 5.2 | 0.00 | 0.00 | 0.00 | 51 | 1013.2 |
| 20260905181119 | 93 | 31 | 2.6 | 7.8 | 0.00 | 0.00 | 0.00 | 51 | 1013.4 |
| 20260905180614 | 93 | 346 | 1.7 | 4.3 | 0.00 | 0.00 | 0.00 | 51 | 1013.6 |
| 20260905180109 | 93 | 238 | 0.9 | 5.2 | 0.00 | 0.00 | 0.00 | 50 | 1013.9 |
| 20260905175608 | 93 | 325 | 1.7 | 4.3 | 0.00 | 0.00 | 0.00 | 50 | 1013.7 |
| 20260905175104 | 94 | 343 | 2.6 | 4.3 | 0.00 | 0.00 | 0.00 | 49 | 1013.7 |
| 20260905174600 | 94 | 282 | 4.3 | 7.0 | 0.00 | 0.00 | 0.00 | 49 | 1013.9 |
| 20260905174054 | 94 | 250 | 3.5 | 7.8 | 0.00 | 0.00 | 0.00 | 48 | 1013.7 |
| 20260905173551 | 93 | 327 | 1.7 | 5.2 | 0.00 | 0.00 | 0.00 | 51 | 1013.7 |
| 20260905173046 | 93 | 306 | 4.3 | 6.1 | 0.00 | 0.00 | 0.00 | 50 | 1014.0 |
| 20260905172545 | 94 | 261 | 1.7 | 3.5 | 0.00 | 0.00 | 0.00 | 50 | 1014.2 |
| 20260905172040 | 93 | 227 | 1.7 | 3.5 | 0.00 | 0.00 | 0.00 | 51 | 1014.7 |
| 20260905171537 | 93 | 279 | 2.6 | 5.2 | 0.00 | 0.00 | 0.00 | 52 | 1014.4 |
| 20260905171032 | 93 | 238 | 1.7 | 4.3 | 0.00 | 0.00 | 0.00 | 52 | 1014.8 |
| 20260905170529 | 92 | 316 | 1.7 | 7.0 | 0.00 | 0.00 | 0.00 | 53 | 1014.8 |
| 20260905170024 | 92 | 266 | 5.2 | 8.7 | 0.00 | 0.00 | 0.00 | 52 | 1014.8 |
| 20260905165519 | 92 | 311 | 3.5 | 5.2 | 0.00 | 0.00 | 0.00 | 53 | 1015.0 |
| 20260905165014 | 92 | 260 | 1.7 | 5.2 | 0.00 | 0.00 | 0.00 | 54 | 1015.1 |
| 20260905164514 | 92 | 337 | 3.5 | 4.3 | 0.00 | 0.00 | 0.00 | 53 | 1014.9 |
| 20260905164008 | 93 | 254 | 4.3 | 7.0 | 0.00 | 0.00 | 0.00 | 51 | 1015.0 |
| 20260905163504 | 92 | 281 | 4.3 | 5.2 | 0.00 | 0.00 | 0.00 | 52 | 1014.9 |
| 20260905163000 | 93 | 218 | 1.7 | 6.1 | 0.00 | 0.00 | 0.00 | 53 | 1015.0 |
| 20260905162455 | 93 | 264 | 0.9 | 1.7 | 0.00 | 0.00 | 0.00 | 53 | 1015.1 |
| 20260905161951 | 93 | 41 | 0.0 | 5.2 | 0.00 | 0.00 | 0.00 | 54 | 1015.1 |
| 20260905161449 | 92 | 247 | 1.7 | 3.5 | 0.00 | 0.00 | 0.00 | 56 | 1015.3 |
| 20260905160948 | 91 | 275 | 1.7 | 5.2 | 0.00 | 0.00 | 0.00 | 54 | 1015.4 |
| 20260905160442 | 92 | 262 | 2.6 | 5.2 | 0.00 | 0.00 | 0.00 | 56 | 1015.1 |
| 20260905155941 | 91 | 312 | 0.9 | 5.2 | 0.00 | 0.00 | 0.00 | 56 | 1015.5 |
| 20260905155436 | 91 | 231 | 1.7 | 3.5 | 0.00 | 0.00 | 0.00 | 57 | 1015.5 |
| 20260905154935 | 91 | 110 | 0.0 | 3.5 | 0.00 | 0.00 | 0.00 | 57 | 1015.5 |
| 20260905154430 | 90 | 309 | 1.7 | 3.5 | 0.00 | 0.00 | 0.00 | 58 | 1015.6 |
| 20260905153926 | 90 | 333 | 1.7 | 2.6 | 0.00 | 0.00 | 0.00 | 57 | 1015.7 |
| 20260905153422 | 89 | 172 | 0.9 | 4.3 | 0.00 | 0.00 | 0.00 | 59 | 1015.6 |
| 20260905152921 | 89 | 217 | 0.0 | 3.5 | 0.00 | 0.00 | 0.00 | 60 | 1015.7 |
| 20260905152421 | 88 | 289 | 0.9 | 3.5 | 0.00 | 0.00 | 0.00 | 62 | 1015.6 |
| 20260905151916 | 88 | 244 | 0.9 | 6.1 | 0.00 | 0.00 | 0.00 | 61 | 1015.8 |
| 20260905151412 | 88 | 283 | 0.9 | 2.6 | 0.00 | 0.00 | 0.00 | 61 | 1015.5 |
| 20260905150907 | 87 | 268 | 3.5 | 4.3 | 0.00 | 0.00 | 0.00 | 61 | 1015.7 |
| 20260905150406 | 87 | 281 | 1.7 | 4.3 | 0.00 | 0.00 | 0.00 | 61 | 1015.9 |
| 20260905145904 | 87 | 287 | 0.9 | 4.3 | 0.00 | 0.00 | 0.00 | 61 | 1015.9 |
| 20260905145404 | 87 | 290 | 1.7 | 1.7 | 0.00 | 0.00 | 0.00 | 62 | 1015.9 |
| 20260905144903 | 87 | 254 | 2.6 | 4.3 | 0.00 | 0.00 | 0.00 | 62 | 1015.9 |
| 20260905144359 | 86 | 283 | 2.6 | 2.6 | 0.00 | 0.00 | 0.00 | 65 | 1015.9 |
| 20260905143857 | 86 | 260 | 0.0 | 1.7 | 0.00 | 0.00 | 0.00 | 65 | 1015.9 |
| 20260905143352 | 86 | 221 | 0.9 | 2.6 | 0.00 | 0.00 | 0.00 | 65 | 1016.0 |
| 20260905142851 | 86 | 169 | 1.7 | 1.7 | 0.00 | 0.00 | 0.00 | 65 | 1015.9 |
| 20260905142350 | 85 | 191 | 0.9 | 2.6 | 0.00 | 0.00 | 0.00 | 66 | 1015.8 |
| 20260905141846 | 85 | 276 | 0.9 | 3.5 | 0.00 | 0.00 | 0.00 | 67 | 1015.7 |
| 20260905141341 | 84 | 241 | 1.7 | 2.6 | 0.00 | 0.00 | 0.00 | 67 | 1015.9 |
| 20260905140837 | 84 | 261 | 2.6 | 3.5 | 0.00 | 0.00 | 0.00 | 68 | 1015.8 |
| 20260905140337 | 84 | 224 | 0.0 | 0.9 | 0.00 | 0.00 | 0.00 | 71 | 1015.8 |
| 20260905135836 | 83 | 193 | 0.9 | 2.6 | 0.00 | 0.00 | 0.00 | 72 | 1015.8 |
| 20260905135332 | 83 | 199 | 0.0 | 1.7 | 0.00 | 0.00 | 0.00 | 72 | 1015.7 |
| 20260905134828 | 82 | 177 | 0.0 | 3.5 | 0.00 | 0.00 | 0.00 | 72 | 1015.6 |
| 20260905134326 | 82 | 192 | 1.7 | 2.6 | 0.00 | 0.00 | 0.00 | 74 | 1015.6 |
| 20260905133826 | 81 | 254 | 0.9 | 2.6 | 0.00 | 0.00 | 0.00 | 74 | 1015.8 |
| 20260905133322 | 81 | 216 | 1.7 | 2.6 | 0.00 | 0.00 | 0.00 | 76 | 1015.8 |
| 20260905132821 | 80 | 272 | 1.7 | 3.5 | 0.00 | 0.00 | 0.00 | 76 | 1015.8 |
| 20260905132317 | 80 | 218 | 0.0 | 3.5 | 0.00 | 0.00 | 0.00 | 77 | 1015.8 |
| 20260905131816 | 80 | 204 | 0.0 | 2.6 | 0.00 | 0.00 | 0.00 | 78 | 1015.8 |
| 20260905131312 | 79 | 249 | 0.0 | 2.6 | 0.00 | 0.00 | 0.00 | 79 | 1015.6 |
| 20260905130807 | 79 | 230 | 0.0 | 3.5 | 0.00 | 0.00 | 0.00 | 79 | 1015.8 |
| 20260905130306 | 78 | 186 | 0.0 | 1.7 | 0.00 | 0.00 | 0.00 | 81 | 1015.9 |
| 20260905125801 | 78 | 262 | 1.7 | 2.6 | 0.00 | 0.00 | 0.00 | 82 | 1015.9 |
| 20260905125256 | 78 | 199 | 0.9 | 1.7 | 0.00 | 0.00 | 0.00 | 83 | 1016.0 |
| 20260905124753 | 77 | 190 | 0.9 | 1.7 | 0.00 | 0.00 | 0.00 | 84 | 1016.0 |
| 20260905124248 | 77 | 239 | 0.0 | 1.7 | 0.00 | 0.00 | 0.00 | 84 | 1016.0 |
| 20260905123743 | 76 | 176 | 0.0 | 1.7 | 0.00 | 0.00 | 0.00 | 85 | 1016.0 |
| 20260905123240 | 76 | 245 | 0.0 | 0.9 | 0.00 | 0.00 | 0.00 | 86 | 1016.0 |
| 20260905122735 | 76 | 144 | 0.9 | 0.9 | 0.00 | 0.00 | 0.00 | 86 | 1016.0 |
| 20260905122234 | 75 | 182 | 0.9 | 1.7 | 0.00 | 0.00 | 0.00 | 87 | 1016.0 |
| 20260905121730 | 75 | 187 | 0.0 | 1.7 | 0.00 | 0.00 | 0.00 | 88 | 1016.1 |
| 20260905121226 | 74 | 108 | 0.9 | 1.7 | 0.00 | 0.00 | 0.00 | 88 | 1016.1 |
| 20260905120725 | 74 | 202 | 0.9 | 1.7 | 0.00 | 0.00 | 0.00 | 90 | 1015.9 |
| 20260905120219 | 73 | 125 | 0.0 | 1.7 | 0.00 | 0.00 | 0.00 | 91 | 1016.1 |
| 20260905115713 | 73 | 134 | 0.0 | 0.9 | 0.00 | 0.00 | 0.00 | 92 | 1015.9 |
| 20260905115208 | 73 | 221 | 0.0 | 0.9 | 0.00 | 0.00 | 0.00 | 92 | 1015.8 |
| 20260905114703 | 73 | 212 | 0.0 | 0.9 | 0.00 | 0.00 | 0.00 | 93 | 1015.7 |
| 20260905114201 | 72 | 157 | 0.0 | 0.0 | 0.00 | 0.00 | 0.00 | 93 | 1015.6 |
| 20260905113701 | 72 | 263 | 0.0 | 0.9 | 0.00 | 0.00 | 0.00 | 94 | 1015.5 |
| 20260905113156 | 72 | 140 | 0.9 | 1.7 | 0.00 | 0.00 | 0.00 | 94 | 1015.6 |
| 20260905112656 | 71 | 140 | 0.0 | 0.9 | 0.00 | 0.00 | 0.00 | 94 | 1015.4 |
| 20260905112152 | 71 | 135 | 0.0 | 0.9 | 0.00 | 0.00 | 0.00 | 94 | 1015.4 |